Year,Month,Day,Hour,Minute,Value (Times are PST for temperature in C)
2009,12,10,00,00,-6.20
2009,12,10,00,01,-6.20
2009,12,10,00,02,-6.20
2009,12,10,00,03,-6.20
2009,12,10,00,04,-6.20
2009,12,10,00,05,-6.20
2009,12,10,00,06,-6.20
2009,12,10,00,07,-6.20
2009,12,10,00,08,-6.30
2009,12,10,00,09,-6.30
2009,12,10,00,10,-6.30
2009,12,10,00,11,-6.30
2009,12,10,00,12,-6.30
2009,12,10,00,13,-6.20
2009,12,10,00,14,-6.20
2009,12,10,00,15,-6.20
2009,12,10,00,16,-6.20
2009,12,10,00,17,-6.20
2009,12,10,00,18,-6.20
2009,12,10,00,19,-6.20
2009,12,10,00,20,-6.20
2009,12,10,00,21,-6.20
2009,12,10,00,22,-6.20
2009,12,10,00,23,-6.20
2009,12,10,00,24,-6.20
2009,12,10,00,25,-6.20
2009,12,10,00,26,-6.10
2009,12,10,00,27,-6.10
2009,12,10,00,28,-6.10
2009,12,10,00,29,-6.10
2009,12,10,00,30,-6.10
2009,12,10,00,31,-6.10
2009,12,10,00,32,-6.10
2009,12,10,00,33,-6.10
2009,12,10,00,34,-6.10
2009,12,10,00,35,-6.10
2009,12,10,00,36,-6.10
2009,12,10,00,37,-6.10
2009,12,10,00,38,-6.10
2009,12,10,00,39,-6.10
2009,12,10,00,40,-6.10
2009,12,10,00,41,-6.10
2009,12,10,00,42,-6.10
2009,12,10,00,43,-6.10
2009,12,10,00,44,-6.10
2009,12,10,00,45,-6.10
2009,12,10,00,46,-6.10
2009,12,10,00,47,-6.10
2009,12,10,00,48,-6.10
2009,12,10,00,49,-6.10
2009,12,10,00,50,-6.10
2009,12,10,00,51,-6.10
2009,12,10,00,52,-6.10
2009,12,10,00,53,-6.10
2009,12,10,00,54,-6.10
2009,12,10,00,55,-6.10
2009,12,10,00,56,-6.20
2009,12,10,00,57,-6.20
2009,12,10,00,58,-6.20
2009,12,10,00,59,-6.20
2009,12,10,01,00,-6.20
2009,12,10,01,01,-6.20
2009,12,10,01,02,-6.20
2009,12,10,01,03,-6.20
2009,12,10,01,04,-6.20
2009,12,10,01,05,-6.20
2009,12,10,01,06,-6.20
2009,12,10,01,07,-6.20
2009,12,10,01,08,-6.20
2009,12,10,01,09,-6.20
2009,12,10,01,10,-6.20
2009,12,10,02,51,-6.70
2009,12,10,02,52,-6.70
2009,12,10,02,53,-6.70
2009,12,10,02,54,-6.70
2009,12,10,02,55,-6.60
2009,12,10,02,56,-6.60
2009,12,10,02,57,-6.60
2009,12,10,02,58,-6.60
2009,12,10,02,59,-6.60
2009,12,10,03,00,-6.60
2009,12,10,03,01,-6.60
2009,12,10,03,02,-6.70
2009,12,10,03,03,-6.70
2009,12,10,03,04,-6.70
2009,12,10,03,05,-6.70
2009,12,10,03,06,-6.70
2009,12,10,03,07,-6.70
2009,12,10,03,08,-6.70
2009,12,10,03,09,-6.70
2009,12,10,03,10,-6.70
2009,12,10,03,11,-6.70
2009,12,10,03,12,-6.70
2009,12,10,03,13,-6.70
2009,12,10,03,14,-6.70
2009,12,10,03,15,-6.70
2009,12,10,03,16,-6.70
2009,12,10,03,17,-6.70
2009,12,10,03,18,-6.70
2009,12,10,03,19,-6.70
2009,12,10,03,20,-6.70
2009,12,10,03,21,-6.70
2009,12,10,03,22,-6.70
2009,12,10,03,23,-6.70
2009,12,10,03,24,-6.70
2009,12,10,03,25,-6.70
2009,12,10,03,26,-6.70
2009,12,10,03,27,-6.70
2009,12,10,03,28,-6.80
2009,12,10,03,29,-6.80
2009,12,10,03,30,-6.80
2009,12,10,03,31,-6.80
2009,12,10,03,32,-6.80
2009,12,10,03,33,-6.80
2009,12,10,03,34,-6.80
2009,12,10,03,35,-6.80
2009,12,10,03,36,-6.80
2009,12,10,03,37,-6.80
2009,12,10,03,38,-6.80
2009,12,10,03,39,-6.90
2009,12,10,03,40,-6.90
2009,12,10,03,41,-6.90
2009,12,10,03,42,-6.90
2009,12,10,03,43,-6.90
2009,12,10,03,44,-6.90
2009,12,10,03,45,-6.90
2009,12,10,03,46,-6.90
2009,12,10,03,47,-6.90
2009,12,10,03,48,-6.90
2009,12,10,03,49,-6.90
2009,12,10,03,50,-6.90
2009,12,10,03,51,-6.90
2009,12,10,03,52,-6.90
2009,12,10,03,53,-6.90
2009,12,10,03,54,-6.90
2009,12,10,03,55,-6.90
2009,12,10,03,56,-6.90
2009,12,10,03,57,-6.90
2009,12,10,03,58,-6.90
2009,12,10,03,59,-6.90
2009,12,10,04,00,-6.90
2009,12,10,04,01,-6.90
2009,12,10,04,02,-6.90
2009,12,10,04,03,-6.90
2009,12,10,04,04,-6.90
2009,12,10,04,05,-6.90
2009,12,10,04,06,-6.90
2009,12,10,04,07,-6.90
2009,12,10,04,08,-6.90
2009,12,10,04,09,-6.90
2009,12,10,04,10,-6.90
2009,12,10,04,11,-6.80
2009,12,10,04,12,-6.80
2009,12,10,04,13,-6.80
2009,12,10,04,14,-6.80
2009,12,10,04,15,-6.80
2009,12,10,04,16,-6.80
2009,12,10,04,17,-6.80
2009,12,10,04,18,-6.80
2009,12,10,04,19,-6.80
2009,12,10,04,20,-6.80
2009,12,10,04,21,-6.80
2009,12,10,04,22,-6.80
2009,12,10,04,23,-6.90
2009,12,10,04,24,-6.90
2009,12,10,04,25,-6.90
2009,12,10,04,26,-6.90
2009,12,10,04,27,-6.90
2009,12,10,04,28,-6.90
2009,12,10,04,29,-7.00
2009,12,10,04,30,-7.00
2009,12,10,04,31,-7.00
2009,12,10,04,32,-7.00
2009,12,10,04,33,-7.00
2009,12,10,04,34,-7.10
2009,12,10,04,35,-7.10
2009,12,10,04,36,-7.10
2009,12,10,04,37,-7.10
2009,12,10,04,38,-7.20
2009,12,10,04,39,-7.20
2009,12,10,04,40,-7.20
2009,12,10,04,41,-7.20
2009,12,10,04,42,-7.30
2009,12,10,04,43,-7.30
2009,12,10,04,44,-7.30
2009,12,10,04,45,-7.30
2009,12,10,04,46,-7.30
2009,12,10,04,47,-7.30
2009,12,10,04,48,-7.30
2009,12,10,04,49,-7.30
2009,12,10,04,50,-7.20
2009,12,10,04,51,-7.20
2009,12,10,04,52,-7.20
2009,12,10,04,53,-7.20
2009,12,10,04,54,-7.10
2009,12,10,04,55,-7.10
2009,12,10,04,56,-7.10
2009,12,10,04,57,-7.10
2009,12,10,04,58,-7.10
2009,12,10,04,59,-7.10
2009,12,10,05,00,-7.10
2009,12,10,05,01,-7.10
2009,12,10,05,02,-7.10
2009,12,10,05,03,-7.00
2009,12,10,05,04,-7.00
2009,12,10,05,05,-7.00
2009,12,10,05,06,-7.10
2009,12,10,05,07,-7.10
2009,12,10,05,08,-7.00
2009,12,10,05,09,-7.00
2009,12,10,05,10,-7.00
2009,12,10,05,11,-7.00
2009,12,10,05,12,-7.00
2009,12,10,05,13,-7.00
2009,12,10,05,14,-7.00
2009,12,10,05,15,-7.00
2009,12,10,05,16,-6.90
2009,12,10,05,17,-6.90
2009,12,10,05,18,-6.90
2009,12,10,05,19,-7.00
2009,12,10,05,20,-7.00
2009,12,10,05,21,-7.00
2009,12,10,05,22,-7.00
2009,12,10,05,23,-7.00
2009,12,10,05,24,-7.00
2009,12,10,05,25,-7.00
2009,12,10,05,26,-7.00
2009,12,10,05,27,-7.00
2009,12,10,05,28,-7.00
2009,12,10,05,29,-7.00
2009,12,10,05,30,-7.00
2009,12,10,05,31,-7.00
2009,12,10,05,32,-7.00
2009,12,10,05,33,-7.00
2009,12,10,05,34,-7.00
2009,12,10,05,35,-7.00
2009,12,10,05,36,-7.00
2009,12,10,05,37,-7.00
2009,12,10,05,38,-7.10
2009,12,10,05,39,-7.10
2009,12,10,05,40,-7.10
2009,12,10,05,41,-7.10
2009,12,10,05,42,-7.10
2009,12,10,05,43,-7.10
2009,12,10,05,44,-7.10
2009,12,10,05,45,-7.10
2009,12,10,05,46,-7.20
2009,12,10,05,47,-7.20
2009,12,10,05,48,-7.20
2009,12,10,05,49,-7.20
2009,12,10,05,50,-7.20
2009,12,10,05,51,-7.20
2009,12,10,05,52,-7.20
2009,12,10,05,53,-7.20
2009,12,10,05,54,-7.20
2009,12,10,05,55,-7.20
2009,12,10,05,56,-7.20
2009,12,10,05,57,-7.20
2009,12,10,05,58,-7.20
2009,12,10,05,59,-7.20
2009,12,10,06,00,-7.20
2009,12,10,06,01,-7.10
2009,12,10,06,02,-7.10
2009,12,10,06,03,-7.20
2009,12,10,06,04,-7.20
2009,12,10,06,05,-7.20
2009,12,10,06,06,-7.20
2009,12,10,06,07,-7.20
2009,12,10,06,08,-7.20
2009,12,10,06,09,-7.20
2009,12,10,06,10,-7.20
2009,12,10,06,11,-7.20
2009,12,10,06,12,-7.20
2009,12,10,06,13,-7.20
2009,12,10,06,14,-7.20
2009,12,10,06,15,-7.20
2009,12,10,06,16,-7.20
2009,12,10,06,17,-7.20
2009,12,10,06,18,-7.20
2009,12,10,06,19,-7.20
2009,12,10,06,20,-7.20
2009,12,10,06,21,-7.20
2009,12,10,06,22,-7.20
2009,12,10,06,23,-7.20
2009,12,10,06,24,-7.20
2009,12,10,06,25,-7.10
2009,12,10,06,26,-7.10
2009,12,10,06,27,-7.10
2009,12,10,06,28,-7.10
2009,12,10,06,29,-7.10
2009,12,10,06,30,-7.10
2009,12,10,06,31,-7.10
2009,12,10,06,32,-7.10
2009,12,10,06,33,-7.10
2009,12,10,06,34,-7.10
2009,12,10,06,35,-7.10
2009,12,10,06,36,-7.00
2009,12,10,06,37,-7.00
2009,12,10,06,38,-7.00
2009,12,10,06,39,-7.00
2009,12,10,06,40,-7.00
2009,12,10,06,41,-7.00
2009,12,10,06,42,-7.00
2009,12,10,06,43,-7.00
2009,12,10,06,44,-7.00
2009,12,10,06,45,-7.00
2009,12,10,06,46,-7.00
2009,12,10,06,47,-7.10
2009,12,10,06,48,-7.10
2009,12,10,06,49,-7.10
2009,12,10,06,50,-7.10
2009,12,10,06,51,-7.10
2009,12,10,06,52,-7.10
2009,12,10,06,53,-7.10
2009,12,10,06,54,-7.10
2009,12,10,06,55,-7.10
2009,12,10,06,56,-7.10
2009,12,10,06,57,-7.10
2009,12,10,06,58,-7.10
2009,12,10,06,59,-7.00
2009,12,10,07,00,-7.00
2009,12,10,07,01,-7.00
2009,12,10,07,02,-7.00
2009,12,10,07,03,-7.00
2009,12,10,07,04,-7.00
2009,12,10,07,05,-7.00
2009,12,10,07,06,-7.00
2009,12,10,07,07,-7.00
2009,12,10,07,08,-7.00
2009,12,10,07,09,-7.00
2009,12,10,07,10,-7.10
2009,12,10,07,11,-7.10
2009,12,10,07,12,-7.10
2009,12,10,07,13,-7.10
2009,12,10,07,14,-7.10
2009,12,10,07,15,-7.10
2009,12,10,07,16,-7.10
2009,12,10,07,17,-7.10
2009,12,10,07,18,-7.10
2009,12,10,07,19,-7.10
2009,12,10,07,20,-7.00
2009,12,10,07,21,-7.00
2009,12,10,07,22,-7.00
2009,12,10,07,23,-7.00
2009,12,10,07,24,-7.00
2009,12,10,07,25,-7.00
2009,12,10,07,26,-7.00
2009,12,10,07,27,-7.00
2009,12,10,07,28,-7.00
2009,12,10,07,29,-7.00
2009,12,10,07,30,-7.00
2009,12,10,07,31,-7.00
2009,12,10,07,32,-7.00
2009,12,10,07,33,-7.00
2009,12,10,07,34,-7.00
2009,12,10,07,35,-7.00
2009,12,10,07,36,-7.00
2009,12,10,07,37,-6.90
2009,12,10,07,38,-6.90
2009,12,10,07,39,-6.90
2009,12,10,07,40,-6.90
2009,12,10,07,41,-6.90
2009,12,10,07,42,-6.90
2009,12,10,07,43,-6.80
2009,12,10,07,44,-6.80
2009,12,10,07,45,-6.80
2009,12,10,07,46,-6.80
2009,12,10,07,47,-6.70
2009,12,10,07,48,-6.70
2009,12,10,07,49,-6.70
2009,12,10,07,50,-6.70
2009,12,10,07,51,-6.70
2009,12,10,07,52,-6.70
2009,12,10,07,53,-6.70
2009,12,10,07,54,-6.70
2009,12,10,07,55,-6.70
2009,12,10,07,56,-6.70
2009,12,10,07,57,-6.70
2009,12,10,07,58,-6.70
2009,12,10,07,59,-6.70
2009,12,10,08,00,-6.70
2009,12,10,08,01,-6.70
2009,12,10,08,02,-6.70
2009,12,10,08,03,-6.60
2009,12,10,08,04,-6.60
2009,12,10,08,05,-6.60
2009,12,10,08,06,-6.60
2009,12,10,08,07,-6.60
2009,12,10,08,08,-6.50
2009,12,10,08,09,-6.50
2009,12,10,08,10,-6.50
2009,12,10,08,11,-6.50
2009,12,10,08,12,-6.50
2009,12,10,08,13,-6.50
2009,12,10,08,14,-6.50
2009,12,10,08,15,-6.50
2009,12,10,08,16,-6.50
2009,12,10,08,17,-6.50
2009,12,10,08,18,-6.50
2009,12,10,08,19,-6.40
2009,12,10,08,20,-6.40
2009,12,10,08,21,-6.40
2009,12,10,08,22,-6.40
2009,12,10,08,23,-6.40
2009,12,10,08,24,-6.40
2009,12,10,08,25,-6.40
2009,12,10,08,26,-6.30
2009,12,10,08,27,-6.30
2009,12,10,08,28,-6.30
2009,12,10,08,29,-6.30
2009,12,10,08,30,-6.20
2009,12,10,08,31,-6.20
2009,12,10,08,32,-6.20
2009,12,10,08,33,-6.20
2009,12,10,08,34,-6.20
2009,12,10,08,35,-6.10
2009,12,10,08,36,-6.10
2009,12,10,08,37,-6.10
2009,12,10,08,38,-6.00
2009,12,10,08,39,-5.90
2009,12,10,08,40,-5.90
2009,12,10,08,41,-5.80
2009,12,10,08,42,-5.80
2009,12,10,08,43,-5.70
2009,12,10,08,44,-5.70
2009,12,10,08,45,-5.60
2009,12,10,08,46,-5.60
2009,12,10,08,47,-5.50
2009,12,10,08,48,-5.50
2009,12,10,08,49,-5.40
2009,12,10,08,50,-5.40
2009,12,10,08,51,-5.30
2009,12,10,08,52,-5.30
2009,12,10,08,53,-5.20
2009,12,10,08,54,-5.20
2009,12,10,08,55,-5.10
2009,12,10,08,56,-5.10
2009,12,10,08,57,-5.00
2009,12,10,08,58,-5.00
2009,12,10,08,59,-4.90
2009,12,10,09,00,-4.90
2009,12,10,09,01,-4.90
2009,12,10,09,02,-4.80
2009,12,10,09,03,-4.80
2009,12,10,09,04,-4.80
2009,12,10,09,05,-4.70
2009,12,10,09,06,-4.70
2009,12,10,09,07,-4.70
2009,12,10,09,08,-4.70
2009,12,10,09,09,-4.70
2009,12,10,09,10,-4.60
2009,12,10,09,11,-4.60
2009,12,10,09,12,-4.50
2009,12,10,09,13,-4.50
2009,12,10,09,14,-4.50
2009,12,10,09,15,-4.40
2009,12,10,09,16,-4.40
2009,12,10,09,17,-4.40
2009,12,10,09,18,-4.30
2009,12,10,09,19,-4.30
2009,12,10,09,20,-4.20
2009,12,10,09,21,-4.20
2009,12,10,09,22,-4.20
2009,12,10,09,23,-4.10
2009,12,10,09,24,-4.10
2009,12,10,09,25,-4.00
2009,12,10,09,26,-4.00
2009,12,10,09,27,-3.90
2009,12,10,09,28,-3.80
2009,12,10,09,29,-3.80
2009,12,10,09,30,-3.70
2009,12,10,09,31,-3.70
2009,12,10,09,32,-3.70
2009,12,10,09,33,-3.60
2009,12,10,09,34,-3.60
2009,12,10,09,35,-3.50
2009,12,10,09,36,-3.50
2009,12,10,09,37,-3.40
2009,12,10,09,38,-3.40
2009,12,10,09,39,-3.30
2009,12,10,09,40,-3.30
2009,12,10,09,41,-3.30
2009,12,10,09,42,-3.20
2009,12,10,09,43,-3.20
2009,12,10,09,44,-3.10
2009,12,10,09,45,-3.10
2009,12,10,09,46,-3.00
2009,12,10,09,47,-3.00
2009,12,10,09,48,-2.90
2009,12,10,09,49,-2.80
2009,12,10,09,50,-2.80
2009,12,10,09,51,-2.80
2009,12,10,09,52,-2.80
2009,12,10,09,53,-2.80
2009,12,10,09,54,-2.70
2009,12,10,09,55,-2.70
2009,12,10,09,56,-2.60
2009,12,10,09,57,-2.60
2009,12,10,09,58,-2.50
2009,12,10,09,59,-2.50
2009,12,10,10,00,-2.40
2009,12,10,10,01,-2.40
2009,12,10,10,02,-2.30
2009,12,10,10,03,-2.30
2009,12,10,10,04,-2.20
2009,12,10,10,05,-2.10
2009,12,10,10,06,-2.10
2009,12,10,10,07,-2.00
2009,12,10,10,08,-1.90
2009,12,10,10,09,-1.80
2009,12,10,10,10,-1.80
2009,12,10,10,11,-1.80
2009,12,10,10,12,-1.70
2009,12,10,10,13,-1.70
2009,12,10,10,14,-1.60
2009,12,10,10,15,-1.60
2009,12,10,10,16,-1.50
2009,12,10,10,17,-1.50
2009,12,10,10,18,-1.40
2009,12,10,10,19,-1.40
2009,12,10,10,20,-1.40
2009,12,10,10,21,-1.30
2009,12,10,10,22,-1.20
2009,12,10,10,23,-1.20
2009,12,10,10,24,-1.10
2009,12,10,10,25,-1.10
2009,12,10,10,26,-1.00
2009,12,10,10,27,-0.90
2009,12,10,10,28,-0.90
2009,12,10,10,29,-0.90
2009,12,10,10,30,-0.80
2009,12,10,10,31,-0.70
2009,12,10,10,32,-0.70
2009,12,10,10,33,-0.60
2009,12,10,10,34,-0.50
2009,12,10,10,35,-0.40
2009,12,10,10,36,-0.40
2009,12,10,10,37,-0.30
2009,12,10,10,38,-0.20
2009,12,10,10,39,-0.10
2009,12,10,10,40,-0.10
2009,12,10,10,41,0.00
2009,12,10,10,42,0.10
2009,12,10,10,43,0.10
2009,12,10,10,44,0.20
2009,12,10,10,45,0.20
2009,12,10,10,46,0.30
2009,12,10,10,47,0.30
2009,12,10,10,48,0.40
2009,12,10,10,49,0.40
2009,12,10,10,50,0.40
2009,12,10,10,51,0.50
2009,12,10,10,52,0.50
2009,12,10,10,53,0.60
2009,12,10,10,54,0.60
2009,12,10,10,55,0.70
2009,12,10,10,56,0.70
2009,12,10,10,57,0.80
2009,12,10,10,58,0.80
2009,12,10,10,59,0.90
2009,12,10,11,00,0.90
2009,12,10,11,01,1.00
2009,12,10,11,02,1.10
2009,12,10,11,03,1.20
2009,12,10,11,04,1.30
2009,12,10,11,05,1.40
2009,12,10,11,06,1.50
2009,12,10,11,07,1.50
2009,12,10,11,08,1.50
2009,12,10,11,09,1.60
2009,12,10,11,10,1.60
2009,12,10,11,11,1.60
2009,12,10,11,12,1.70
2009,12,10,11,13,1.70
2009,12,10,11,14,1.80
2009,12,10,11,15,1.80
2009,12,10,11,16,1.90
2009,12,10,11,17,1.90
2009,12,10,11,18,1.90
2009,12,10,11,19,2.00
2009,12,10,11,20,2.00
2009,12,10,11,21,2.10
2009,12,10,11,22,2.10
2009,12,10,11,23,2.10
2009,12,10,11,24,2.10
2009,12,10,11,25,2.20
2009,12,10,11,26,2.20
2009,12,10,11,27,2.20
2009,12,10,11,28,2.20
2009,12,10,11,29,2.20
2009,12,10,11,30,2.10
2009,12,10,11,31,2.10
2009,12,10,11,32,2.10
2009,12,10,11,33,2.10
2009,12,10,11,34,2.10
2009,12,10,11,35,2.10
2009,12,10,11,36,2.10
2009,12,10,11,37,2.10
2009,12,10,11,38,2.10
2009,12,10,11,39,2.10
2009,12,10,11,40,2.20
2009,12,10,11,41,2.20
2009,12,10,11,42,2.20
2009,12,10,11,43,2.20
2009,12,10,11,44,2.20
2009,12,10,11,45,2.20
2009,12,10,11,46,2.20
2009,12,10,11,47,2.10
2009,12,10,11,48,2.10
2009,12,10,11,49,2.00
2009,12,10,11,50,2.00
2009,12,10,11,51,1.90
2009,12,10,11,52,1.90
2009,12,10,11,53,1.90
2009,12,10,11,54,2.00
2009,12,10,11,55,2.00
2009,12,10,11,56,2.00
2009,12,10,11,57,2.00
2009,12,10,11,58,2.00
2009,12,10,11,59,2.00
2009,12,10,12,00,2.00
2009,12,10,12,01,2.00
2009,12,10,12,02,2.00
2009,12,10,12,03,2.00
2009,12,10,12,04,2.00
2009,12,10,12,05,2.00
2009,12,10,12,06,2.00
2009,12,10,12,07,2.00
2009,12,10,12,08,1.90
2009,12,10,12,09,1.90
2009,12,10,12,10,1.90
2009,12,10,12,11,1.80
2009,12,10,12,12,1.80
2009,12,10,12,13,1.80
2009,12,10,12,14,1.80
2009,12,10,12,15,1.80
2009,12,10,12,16,1.80
2009,12,10,12,17,1.80
2009,12,10,12,18,1.90
2009,12,10,12,19,1.90
2009,12,10,12,20,1.90
2009,12,10,12,21,1.90
2009,12,10,12,22,1.90
2009,12,10,12,23,1.90
2009,12,10,12,24,1.90
2009,12,10,12,25,1.90
2009,12,10,12,26,1.90
2009,12,10,12,27,1.90
2009,12,10,12,28,1.90
2009,12,10,12,29,1.90
2009,12,10,12,30,1.90
2009,12,10,12,31,1.90
2009,12,10,12,32,1.90
2009,12,10,12,33,2.00
2009,12,10,12,34,2.00
2009,12,10,12,35,2.00
2009,12,10,12,36,2.00
2009,12,10,12,37,2.00
2009,12,10,12,38,2.00
2009,12,10,12,39,2.00
2009,12,10,12,40,2.00
2009,12,10,12,41,2.00
2009,12,10,12,42,2.00
2009,12,10,12,43,2.00
2009,12,10,12,44,2.00
2009,12,10,12,45,2.00
2009,12,10,12,46,2.00
2009,12,10,12,47,2.00
2009,12,10,12,48,2.00
2009,12,10,12,49,2.00
2009,12,10,12,50,2.00
2009,12,10,12,51,2.00
2009,12,10,12,52,2.00
2009,12,10,12,53,2.00
2009,12,10,12,54,2.10
2009,12,10,12,55,2.10
2009,12,10,12,56,2.10
2009,12,10,12,57,2.10
2009,12,10,12,58,2.10
2009,12,10,12,59,2.10
2009,12,10,13,00,2.10
2009,12,10,13,01,2.10
2009,12,10,13,02,2.00
2009,12,10,13,03,2.00
2009,12,10,13,04,1.90
2009,12,10,13,05,1.90
2009,12,10,13,06,1.90
2009,12,10,13,07,1.90
2009,12,10,13,08,1.90
2009,12,10,13,09,1.90
2009,12,10,13,10,1.90
2009,12,10,13,11,2.00
2009,12,10,13,12,2.00
2009,12,10,13,13,1.90
2009,12,10,13,14,1.90
2009,12,10,13,15,1.90
2009,12,10,13,16,2.00
2009,12,10,13,17,2.00
2009,12,10,13,18,2.00
2009,12,10,13,19,2.00
2009,12,10,13,20,2.00
2009,12,10,13,21,2.00
2009,12,10,13,22,2.00
2009,12,10,13,23,2.10
2009,12,10,13,24,2.10
2009,12,10,13,25,2.20
2009,12,10,13,26,2.20
2009,12,10,13,27,2.20
2009,12,10,13,28,2.20
2009,12,10,13,29,2.20
2009,12,10,13,30,2.30
2009,12,10,13,31,2.30
2009,12,10,13,32,2.40
2009,12,10,13,33,2.40
2009,12,10,13,34,2.50
2009,12,10,13,35,2.50
2009,12,10,13,36,2.50
2009,12,10,13,37,2.50
2009,12,10,13,38,2.50
2009,12,10,13,39,2.50
2009,12,10,13,40,2.60
2009,12,10,13,41,2.70
2009,12,10,13,42,2.70
2009,12,10,13,43,2.70
2009,12,10,13,44,2.70
2009,12,10,13,45,2.80
2009,12,10,13,46,2.80
2009,12,10,13,47,2.80
2009,12,10,13,48,2.80
2009,12,10,13,49,2.90
2009,12,10,13,50,2.90
2009,12,10,13,51,2.90
2009,12,10,13,52,2.90
2009,12,10,13,53,2.80
2009,12,10,13,54,2.70
2009,12,10,13,55,2.70
2009,12,10,13,56,2.60
2009,12,10,13,57,2.60
2009,12,10,13,58,2.50
2009,12,10,13,59,2.50
2009,12,10,14,00,2.50
2009,12,10,14,01,2.50
2009,12,10,14,02,2.50
2009,12,10,14,03,2.50
2009,12,10,14,04,2.40
2009,12,10,14,05,2.30
2009,12,10,14,06,2.30
2009,12,10,14,07,2.30
2009,12,10,14,08,2.30
2009,12,10,14,09,2.30
2009,12,10,14,10,2.20
2009,12,10,14,11,2.20
2009,12,10,14,12,2.20
2009,12,10,14,13,2.20
2009,12,10,14,14,2.30
2009,12,10,14,15,2.40
2009,12,10,14,16,2.50
2009,12,10,14,17,2.50
2009,12,10,14,18,2.60
2009,12,10,14,19,2.70
2009,12,10,14,20,2.80
2009,12,10,14,21,2.80
2009,12,10,14,22,2.80
2009,12,10,14,23,2.70
2009,12,10,14,24,2.70
2009,12,10,14,25,2.70
2009,12,10,14,26,2.70
2009,12,10,14,27,2.70
2009,12,10,14,28,2.70
2009,12,10,14,29,2.70
2009,12,10,14,30,2.60
2009,12,10,14,31,2.60
2009,12,10,14,32,2.50
2009,12,10,14,33,2.50
2009,12,10,14,34,2.50
2009,12,10,14,35,2.50
2009,12,10,14,36,2.50
2009,12,10,14,37,2.50
2009,12,10,14,38,2.60
2009,12,10,14,39,2.70
2009,12,10,14,40,2.70
2009,12,10,14,41,2.70
2009,12,10,14,42,2.60
2009,12,10,14,43,2.60
2009,12,10,14,44,2.60
2009,12,10,14,45,2.60
2009,12,10,14,46,2.60
2009,12,10,14,47,2.70
2009,12,10,14,48,2.70
2009,12,10,14,49,2.70
2009,12,10,14,50,2.80
2009,12,10,14,51,2.70
2009,12,10,14,52,2.70
2009,12,10,14,53,2.70
2009,12,10,14,54,2.70
2009,12,10,14,55,2.70
2009,12,10,14,56,2.70
2009,12,10,14,57,2.70
2009,12,10,14,58,2.70
2009,12,10,14,59,2.70
2009,12,10,15,00,2.70
2009,12,10,15,01,2.70
2009,12,10,15,02,2.70
2009,12,10,15,03,2.70
2009,12,10,15,04,2.70
2009,12,10,15,05,2.70
2009,12,10,15,06,2.70
2009,12,10,15,07,2.70
2009,12,10,15,08,2.80
2009,12,10,15,09,2.90
2009,12,10,15,10,2.90
2009,12,10,15,11,2.90
2009,12,10,15,12,2.90
2009,12,10,15,13,2.90
2009,12,10,15,14,2.80
2009,12,10,15,15,2.80
2009,12,10,15,16,2.70
2009,12,10,15,17,2.60
2009,12,10,15,18,2.50
2009,12,10,15,19,2.50
2009,12,10,15,20,2.50
2009,12,10,15,21,2.50
2009,12,10,15,22,2.40
2009,12,10,15,23,2.40
2009,12,10,15,24,2.40
2009,12,10,15,25,2.40
2009,12,10,15,26,2.40
2009,12,10,15,27,2.40
2009,12,10,15,28,2.30
2009,12,10,15,29,2.30
2009,12,10,15,30,2.30
2009,12,10,15,31,2.30
2009,12,10,15,32,2.30
2009,12,10,15,33,2.30
2009,12,10,15,34,2.20
2009,12,10,15,35,2.20
2009,12,10,15,36,2.20
2009,12,10,15,37,2.20
2009,12,10,15,38,2.20
2009,12,10,15,39,2.20
2009,12,10,15,40,2.20
2009,12,10,15,41,2.20
2009,12,10,15,42,2.20
2009,12,10,15,43,2.20
2009,12,10,15,44,2.20
2009,12,10,15,45,2.20
2009,12,10,15,46,2.20
2009,12,10,15,47,2.20
2009,12,10,15,48,2.20
2009,12,10,15,49,2.20
2009,12,10,15,50,2.20
2009,12,10,15,51,2.10
2009,12,10,15,52,2.10
2009,12,10,15,53,2.10
2009,12,10,15,54,2.10
2009,12,10,15,55,2.10
2009,12,10,15,56,2.00
2009,12,10,15,57,2.00
2009,12,10,15,58,2.00
2009,12,10,15,59,2.00
2009,12,10,16,00,2.00
2009,12,10,16,01,2.00
2009,12,10,16,02,2.00
2009,12,10,16,03,2.00
2009,12,10,16,04,2.00
2009,12,10,16,05,2.00
2009,12,10,16,06,2.00
2009,12,10,16,07,2.00
2009,12,10,16,08,2.00
2009,12,10,16,09,1.90
2009,12,10,16,10,1.90
2009,12,10,16,11,1.90
2009,12,10,16,12,1.90
2009,12,10,16,13,1.90
2009,12,10,16,14,2.00
2009,12,10,16,15,2.00
2009,12,10,16,16,2.00
2009,12,10,16,17,2.00
2009,12,10,16,18,1.90
2009,12,10,16,19,1.90
2009,12,10,16,20,1.90
2009,12,10,16,21,1.90
2009,12,10,16,22,1.90
2009,12,10,16,23,1.90
2009,12,10,16,24,1.90
2009,12,10,16,25,1.90
2009,12,10,16,26,1.90
2009,12,10,16,27,1.90
2009,12,10,16,28,1.90
2009,12,10,16,29,1.90
2009,12,10,16,30,1.90
2009,12,10,16,31,1.90
2009,12,10,16,32,1.90
2009,12,10,16,33,1.90
2009,12,10,16,34,1.80
2009,12,10,16,35,1.80
2009,12,10,16,36,1.80
2009,12,10,16,37,1.80
2009,12,10,16,38,1.80
2009,12,10,16,39,1.80
2009,12,10,16,40,1.80
2009,12,10,16,41,1.80
2009,12,10,16,42,1.70
2009,12,10,16,43,1.70
2009,12,10,16,44,1.70
2009,12,10,16,45,1.70
2009,12,10,16,46,1.70
2009,12,10,16,47,1.60
2009,12,10,16,48,1.60
2009,12,10,16,49,1.60
2009,12,10,16,50,1.60
2009,12,10,16,51,1.60
2009,12,10,16,52,1.60
2009,12,10,16,53,1.50
2009,12,10,16,54,1.50
2009,12,10,16,55,1.50
2009,12,10,16,56,1.50
2009,12,10,16,57,1.50
2009,12,10,16,58,1.50
2009,12,10,16,59,1.50
2009,12,10,17,00,1.50
2009,12,10,17,01,1.50
2009,12,10,17,02,1.50
2009,12,10,17,03,1.50
2009,12,10,17,04,1.50
2009,12,10,17,05,1.50
2009,12,10,17,06,1.50
2009,12,10,17,07,1.50
2009,12,10,17,08,1.50
2009,12,10,17,09,1.40
2009,12,10,17,10,1.40
2009,12,10,17,11,1.40
2009,12,10,17,12,1.40
2009,12,10,17,13,1.40
2009,12,10,17,14,1.40
2009,12,10,17,15,1.40
2009,12,10,17,16,1.40
2009,12,10,17,17,1.40
2009,12,10,17,18,1.40
2009,12,10,17,19,1.40
2009,12,10,17,20,1.40
2009,12,10,17,21,1.40
2009,12,10,17,22,1.40
2009,12,10,17,23,1.40
2009,12,10,17,24,1.40
2009,12,10,17,25,1.40
2009,12,10,17,26,1.40
2009,12,10,17,27,1.40
2009,12,10,17,28,1.40
2009,12,10,17,29,1.30
2009,12,10,17,30,1.30
2009,12,10,17,31,1.30
2009,12,10,17,32,1.30
2009,12,10,17,33,1.30
2009,12,10,17,34,1.30
2009,12,10,17,35,1.30
2009,12,10,17,36,1.30
2009,12,10,17,37,1.30
2009,12,10,17,38,1.30
2009,12,10,17,39,1.30
2009,12,10,17,40,1.30
2009,12,10,17,41,1.30
2009,12,10,17,42,1.30
2009,12,10,17,43,1.30
2009,12,10,17,44,1.30
2009,12,10,17,45,1.30
2009,12,10,17,46,1.30
2009,12,10,17,47,1.30
2009,12,10,17,48,1.30
2009,12,10,17,49,1.30
2009,12,10,17,50,1.30
2009,12,10,17,51,1.30
2009,12,10,17,52,1.20
2009,12,10,17,53,1.20
2009,12,10,17,54,1.20
2009,12,10,17,55,1.20
2009,12,10,17,56,1.20
2009,12,10,17,57,1.20
2009,12,10,17,58,1.20
2009,12,10,17,59,1.20
2009,12,10,18,00,1.20
2009,12,10,18,01,1.20
2009,12,10,18,02,1.20
2009,12,10,18,03,1.10
2009,12,10,18,04,1.10
2009,12,10,18,05,1.10
2009,12,10,18,06,1.10
2009,12,10,18,07,1.10
2009,12,10,18,08,1.10
2009,12,10,18,09,1.10
2009,12,10,18,10,1.10
2009,12,10,18,11,1.10
2009,12,10,18,12,1.10
2009,12,10,18,13,1.10
2009,12,10,18,14,1.10
2009,12,10,18,15,1.00
2009,12,10,18,16,1.00
2009,12,10,18,17,1.00
2009,12,10,18,18,1.00
2009,12,10,18,19,1.00
2009,12,10,18,20,1.00
2009,12,10,18,21,1.00
2009,12,10,18,22,1.00
2009,12,10,18,23,0.90
2009,12,10,18,24,0.90
2009,12,10,18,25,0.90
2009,12,10,18,26,0.90
2009,12,10,18,27,0.90
2009,12,10,18,28,0.90
2009,12,10,18,29,0.90
2009,12,10,18,30,0.90
2009,12,10,18,31,0.90
2009,12,10,18,32,0.90
2009,12,10,18,33,0.80
2009,12,10,18,34,0.80
2009,12,10,18,35,0.80
2009,12,10,18,36,0.80
2009,12,10,18,37,0.80
2009,12,10,18,38,0.80
2009,12,10,18,39,0.80
2009,12,10,18,40,0.80
2009,12,10,18,41,0.80
2009,12,10,18,42,0.80
2009,12,10,18,43,0.80
2009,12,10,18,44,0.80
2009,12,10,18,45,0.70
2009,12,10,18,46,0.70
2009,12,10,18,47,0.70
2009,12,10,18,48,0.70
2009,12,10,18,49,0.70
2009,12,10,18,50,0.70
2009,12,10,18,51,0.60
2009,12,10,18,52,0.60
2009,12,10,18,53,0.60
2009,12,10,18,54,0.60
2009,12,10,18,55,0.60
2009,12,10,18,56,0.60
2009,12,10,18,57,0.60
2009,12,10,18,58,0.60
2009,12,10,18,59,0.60
2009,12,10,19,00,0.60
2009,12,10,19,01,0.60
2009,12,10,19,02,0.60
2009,12,10,19,03,0.60
2009,12,10,19,04,0.60
2009,12,10,19,05,0.50
2009,12,10,19,06,0.50
2009,12,10,19,07,0.50
2009,12,10,19,08,0.50
2009,12,10,19,09,0.50
2009,12,10,19,10,0.50
2009,12,10,19,11,0.50
2009,12,10,19,12,0.50
2009,12,10,19,13,0.50
2009,12,10,19,14,0.50
2009,12,10,19,15,0.50
2009,12,10,19,16,0.50
2009,12,10,19,17,0.50
2009,12,10,19,18,0.50
2009,12,10,19,19,0.50
2009,12,10,19,20,0.40
2009,12,10,19,21,0.40
2009,12,10,19,22,0.40